Weather History for Toledo, OH

Change the Weather History Date:

Thursday, November 21, 2013

  Actual Average Record
Temperature  
Mean Temperature 41 °F 39 °F  
Max Temperature 45 °F 47 °F 69 °F (1934)
Min Temperature 37 °F 31 °F 9 °F (1880)
Degree Days  
Heating Degree Days 24 26  
Month to date heating degree days 480 455  
Since 1 July heating degree days 1017 981  
Cooling Degree Days 0 0  
Month to date cooling degree days 0 0  
Year to date cooling degree days 793 793  
Moisture  
Dew Point 40 °F    
Average Humidity 85    
Maximum Humidity 100    
Minimum Humidity 70    
Precipitation  
Precipitation 0.39 in 0.10 in 1.50 in (2007)
Month to date precipitation 1.32 1.97  
Year to date precipitation 33.73 30.67  
Snow  
Snow 0.00 in 0.00 in - ()
Month to date snowfall 0.5 0.9  
Since 1 July snowfall 0.5 1.1  
Since 1 September snowfall 0.5 1.1  
Snow Depth 0.00 in    
Sea Level Pressure  
Sea Level Pressure 30.25 in    
Wind  
Wind Speed 4 mph (SSE)    
Max Wind Speed 15 mph    
Max Gust Speed 20 mph    
Visibility 7 miles    
Events Rain    
T = Trace of Precipitation, MM = Missing Value Source: NWS Daily Summary

Daily Weather History Graph

Daily Weather History Graph

Search for Another Location

Airport:

Trip Planner

Search our weather history database for the weather conditions in past years. The results will help you decide how hot, cold, wet, or windy it might be!

Date:

Astronomy

Nov. 21, 2013 Rise Set
Actual Time 7:31 AM EST 5:10 PM EST
Civil Twilight 7:01 AM EST 5:40 PM EST
Nautical Twilight 6:27 AM EST 6:14 PM EST
Astronomical Twilight 5:54 AM EST 6:47 PM EST
Moon 8:46 PM EST (11/21) 10:37 AM EST (11/21)
Length of Visible Light 10h 39m
Length of Day
9h 38m
Waning Gibbous, 85% of the Moon is Illuminated
Nov 21
Waning Gibbous
Nov 25
Last Quarter
Dec 2
New
Dec 9
First Quarter
Dec 17
Full

Hourly Weather History & Observations

Time (EST) Temp. Windchill Dew Point Humidity Pressure Visibility Wind Dir Wind Speed Gust Speed Precip Events Conditions
12:52 AM 37.9 °F 35.5 °F 28.9 °F 70% 30.27 in 10.0 mi ESE 3.5 mph - N/A   Overcast
1:52 AM 39.0 °F 34.8 °F 30.9 °F 73% 30.28 in 10.0 mi South 5.8 mph - 0.00 in Rain Light Rain
2:52 AM 41.0 °F 39.0 °F 32.0 °F 70% 30.27 in 10.0 mi SSE 3.5 mph - 0.00 in   Overcast
3:52 AM 39.9 °F - 34.0 °F 79% 30.28 in 10.0 mi Calm Calm - 0.00 in Rain Light Rain
4:52 AM 39.9 °F 36.7 °F 33.1 °F 77% 30.28 in 10.0 mi ESE 4.6 mph - 0.00 in Rain Light Rain
5:52 AM 42.1 °F 39.2 °F 32.0 °F 67% 30.28 in 10.0 mi Variable 4.6 mph - 0.00 in   Overcast
6:52 AM 43.0 °F 37.7 °F 33.1 °F 68% 30.26 in 10.0 mi South 9.2 mph - N/A   Overcast
7:52 AM 42.1 °F 36.6 °F 35.1 °F 76% 30.28 in 10.0 mi South 9.2 mph - 0.00 in Rain Light Rain
8:52 AM 41.0 °F 34.3 °F 37.0 °F 86% 30.30 in 8.0 mi South 11.5 mph 19.6 mph 0.00 in Rain Light Rain
9:52 AM 41.0 °F 35.8 °F 39.0 °F 93% 30.32 in 10.0 mi South 8.1 mph - 0.01 in   Overcast
10:52 AM 42.1 °F 39.2 °F 39.9 °F 92% 30.30 in 8.0 mi South 4.6 mph - N/A   Overcast
11:52 AM 44.1 °F 38.1 °F 41.0 °F 89% 30.29 in 9.0 mi South 11.5 mph - 0.00 in Rain Light Rain
12:12 PM 42.8 °F 37.5 °F 41.0 °F 93% 30.27 in 9.0 mi South 9.2 mph 17.3 mph 0.00 in   Overcast
12:52 PM 45.0 °F 41.8 °F 42.1 °F 90% 30.27 in 10.0 mi South 5.8 mph - 0.00 in   Overcast
1:52 PM 45.0 °F 43.5 °F 43.0 °F 93% 30.24 in 6.0 mi Variable 3.5 mph - 0.01 in Rain Light Rain
2:52 PM 45.0 °F - 43.0 °F 93% 30.22 in 7.0 mi Calm Calm - 0.02 in Rain Light Rain
3:52 PM 44.1 °F 42.5 °F 42.1 °F 93% 30.24 in 5.0 mi South 3.5 mph - 0.01 in Rain Light Rain
4:15 PM 44.6 °F - 42.8 °F 93% 30.22 in 5.0 mi Calm Calm - 0.01 in Rain Light Rain
4:52 PM 44.1 °F 42.5 °F 43.0 °F 96% 30.25 in 3.0 mi SSE 3.5 mph - 0.04 in Rain Light Rain
5:52 PM 44.1 °F 42.5 °F 43.0 °F 96% 30.25 in 5.0 mi SSE 3.5 mph - 0.05 in Rain Light Rain
6:07 PM 44.6 °F 43.1 °F 42.8 °F 93% 30.22 in 4.0 mi SE 3.5 mph - 0.00 in Rain Light Rain
6:52 PM 44.1 °F - 43.0 °F 96% 30.24 in 4.0 mi Calm Calm - 0.04 in Rain Light Rain
7:52 PM 44.1 °F - 43.0 °F 96% 30.23 in 3.0 mi Calm Calm - 0.08 in Rain Rain
8:12 PM 44.6 °F 43.1 °F 42.8 °F 93% 30.21 in 4.0 mi SE 3.5 mph - 0.02 in Rain Light Rain
8:26 PM 44.6 °F 43.1 °F 42.8 °F 93% 30.21 in 4.0 mi South 3.5 mph - 0.04 in Rain Light Rain
8:52 PM 44.1 °F - 44.1 °F 100% 30.22 in 3.0 mi Calm Calm - 0.06 in Rain Light Rain
9:02 PM 44.6 °F 43.1 °F 44.6 °F 100% 30.20 in 3.0 mi SSE 3.5 mph - 0.01 in Rain Light Rain
9:52 PM 44.1 °F - 44.1 °F 100% 30.20 in 3.0 mi Calm Calm - 0.03 in Rain Light Rain
10:33 PM 44.6 °F - 44.6 °F 100% 30.19 in 2.0 mi Calm Calm - 0.02 in Rain Light Rain
10:52 PM 44.1 °F - 44.1 °F 100% 30.19 in 2.5 mi Calm Calm - 0.03 in Rain Light Rain
11:52 PM 45.0 °F 43.5 °F 44.1 °F 97% 30.19 in 2.5 mi South 3.5 mph - 0.01 in   Overcast